DW3478 Weather Reports


Display with metric or nautical units.
time (UTC)temp
F
wind
direction
speed
MPH
gust
MPH
rain 1hr
in
rain 24hr
in
rain mn
in
humidity
%
barometer
mb
20171023114805 70 355 2.0 6.0 0.00 0.00 0.00 72 1021.1
20171023113805 69 355 3.0 6.0 0.00 0.00 0.00 73 1021.1
20171023112805 68 355 2.0 5.0 0.00 0.00 0.00 72 1021.2
20171023110805 69 355 3.0 6.0 0.00 0.00 0.00 69 1021.3
20171023105805 70 355 3.0 8.0 0.00 0.00 0.00 69 1021.3
20171023104806 70 30 2.0 6.0 0.00 0.00 0.00 70 1021.4
20171023103805 69 32 3.0 5.0 0.00 0.00 0.00 70 1021.3
20171023102805 69 32 2.0 6.0 0.00 0.00 0.00 69 1021.3
20171023101805 69 33 3.0 6.0 0.00 0.00 0.00 69 1021.3
20171023100806 69 34 2.0 3.0 0.00 0.00 0.00 69 1021.3
20171023095805 69 34 2.0 3.0 0.00 0.00 0.00 69 1021.4
20171023094806 68 34 2.0 3.0 0.00 0.00 0.00 69 1021.4
20171023092806 68 34 3.0 5.0 0.00 0.00 0.00 69 1021.4
20171023085849 67 34 2.0 3.0 0.00 0.00 0.00 70 1021.2
20171023084805 67 34 1.0 3.0 0.00 0.00 0.00 71 1021.3
20171023082806 65 34 1.0 3.0 0.00 0.00 0.00 76 1021.1
20171023081806 64 34 1.0 3.0 0.00 0.00 0.00 77 1021.1
20171023080805 63 34 0.0 0.0 0.00 0.00 0.00 78 1020.9
20171023075805 62 34 0.0 0.0 0.00 0.00 0.00 78 1020.8
20171023074806 62 34 0.0 0.0 0.00 0.00 0.00 77 1020.7
20171023073805 62 34 0.0 0.0 0.00 0.00 0.00 76 1020.7
20171023072805 62 34 2.0 3.0 0.00 0.00 0.00 76 1020.5
20171023071806 63 34 1.0 3.0 0.00 0.00 0.00 75 1020.5
20171023070806 63 34 0.0 3.0 0.00 0.00 0.00 75 1020.4
20171023065806 63 34 1.0 7.0 0.00 0.00 0.00 74 1020.4
20171023064805 63 34 2.0 5.0 0.00 0.00 0.00 74 1020.5
20171023063806 63 34 3.0 12.0 0.00 0.00 0.00 74 1020.5
20171023062807 63 33 4.0 10.0 0.00 0.00 0.00 74 1020.5
20171023055807 63 33 5.0 10.0 0.00 0.00 0.00 73 1020.5
20171023054805 63 34 6.0 10.0 0.00 0.00 0.00 74 1020.5
20171023053806 63 34 6.0 13.0 0.00 0.00 0.00 75 1020.5
20171023052806 63 35 5.0 12.0 0.00 0.00 0.00 75 1020.5
20171023051806 63 34 5.0 7.0 0.00 0.00 0.00 75 1020.5
20171023050805 62 34 6.0 9.0 0.00 0.00 0.00 76 1020.5
20171023044806 63 34 1.0 3.0 0.00 0.00 0.00 75 1020.6
20171023043805 63 34 2.0 6.0 0.00 0.00 0.00 75 1020.4
20171023042806 64 34 1.0 7.0 0.00 0.00 0.00 74 1020.5
20171023041806 64 34 3.0 6.0 0.00 0.00 0.00 74 1020.6
20171023040808 64 34 2.0 7.0 0.00 0.00 0.00 73 1020.6
20171023035806 64 34 5.0 10.0 0.00 0.00 0.00 73 1020.6
20171023033806 64 34 3.0 10.0 0.00 0.00 0.00 73 1020.7
20171023032807 64 34 5.0 10.0 0.00 0.00 0.00 72 1020.6
20171023031806 64 36 6.0 12.0 0.00 0.00 0.00 72 1020.8
20171023030806 64 38 6.0 10.0 0.00 0.00 0.00 72 1020.8
20171023025806 64 38 6.0 12.0 0.00 0.00 0.00 71 1020.9
20171023024806 65 34 3.0 9.0 0.00 0.00 0.00 71 1021.1
20171023021806 64 32 5.0 12.0 0.00 0.00 0.00 72 1021.3
20171023020806 64 32 6.0 10.0 0.00 0.00 0.00 72 1021.4
20171023015806 64 32 6.0 12.0 0.00 0.00 0.00 73 1021.5
20171023014806 64 34 5.0 12.0 0.00 0.00 0.00 73 1021.5
20171023013805 64 38 5.0 12.0 0.00 0.00 0.00 73 1021.5
20171023012808 64 40 5.0 10.0 0.00 0.00 0.00 74 1021.6
20171023011806 64 40 5.0 10.0 0.00 0.00 0.00 74 1021.7
20171023010806 64 47 4.0 12.0 0.00 0.00 0.00 73 1021.7
20171023004806 64 44 6.0 10.0 0.00 0.00 0.00 74 1021.8
20171023003806 64 41 4.0 12.0 0.00 0.00 0.00 75 1021.9
20171023002806 64 38 6.0 12.0 0.00 0.00 0.00 75 1022.0
20171023000806 64 42 5.0 7.0 0.00 0.00 0.00 75 1022.2
20171022235806 64 43 4.0 7.0 0.00 0.00 0.00 75 1022.3
20171022234805 64 43 2.0 7.0 0.00 0.00 0.00 74 1022.3
20171022233805 64 43 3.0 8.0 0.00 0.00 0.00 74 1022.4
20171022232807 64 43 3.0 6.0 0.00 0.00 0.00 74 1022.5
20171022231805 64 43 2.0 6.0 0.00 0.00 0.00 74 1022.6
20171022230823 64 43 3.0 7.0 0.00 0.00 0.00 73 1022.6
20171022225807 64 43 3.0 9.0 0.00 0.00 0.00 73 1022.5
20171022224805 64 44 4.0 6.0 0.00 0.00 0.00 73 1022.6
20171022223806 64 44 4.0 9.0 0.00 0.00 0.00 74 1022.7
20171022222807 64 44 3.0 7.0 0.00 0.00 0.00 74 1022.8
20171022221806 64 44 5.0 7.0 0.00 0.00 0.00 74 1022.8
20171022220805 64 44 3.0 6.0 0.00 0.00 0.00 74 1022.8
20171022215807 64 44 2.0 6.0 0.00 0.00 0.00 75 1022.8
20171022214806 64 44 2.0 5.0 0.00 0.00 0.00 76 1022.8
20171022213806 64 44 3.0 5.0 0.00 0.00 0.00 75 1022.9
20171022212806 64 44 2.0 9.0 0.00 0.00 0.00 75 1022.9
20171022210805 65 49 3.0 10.0 0.00 0.00 0.00 75 1022.8
20171022205807 65 49 5.0 9.0 0.00 0.00 0.00 75 1022.8
20171022204806 65 49 5.0 9.0 0.00 0.00 0.00 74 1022.8
20171022203806 65 48 3.0 7.0 0.00 0.00 0.00 72 1022.7
20171022202806 65 48 5.0 10.0 0.00 0.00 0.00 72 1022.7
20171022201805 65 49 4.0 12.0 0.00 0.00 0.00 72 1022.7
20171022195807 65 46 3.0 9.0 0.00 0.00 0.00 71 1022.7
20171022192807 65 32 5.0 12.0 0.00 0.00 0.00 70 1022.8
20171022191805 65 31 4.0 12.0 0.00 0.00 0.00 70 1022.8
20171022190806 65 334 4.0 12.0 0.00 0.00 0.00 71 1022.8
20171022185807 65 307 3.0 7.0 0.00 0.00 0.00 72 1022.8
20171022184806 65 300 3.0 7.0 0.00 0.00 0.00 72 1022.7
20171022183806 65 292 3.0 7.0 0.00 0.00 0.00 72 1022.6
20171022181806 66 287 2.0 5.0 0.00 0.00 0.00 70 1022.5
20171022175807 67 285 0.0 3.0 0.00 0.00 0.00 69 1022.3
20171022172806 68 284 1.0 6.0 0.00 0.00 0.00 68 1022.4
20171022171806 68 281 0.0 1.0 0.00 0.00 0.00 69 1022.4
20171022170807 68 281 1.0 3.0 0.00 0.00 0.00 70 1022.4
20171022164807 68 281 0.0 3.0 0.00 0.00 0.00 71 1022.4
20171022163807 68 281 1.0 3.0 0.00 0.00 0.00 69 1022.5
20171022160806 69 281 2.0 7.0 0.00 0.00 0.00 69 1022.6
20171022155807 69 281 3.0 6.0 0.00 0.00 0.00 69 1022.7
20171022152807 70 272 9.0 14.0 0.00 0.00 0.00 75 1022.6
20171022145807 70 263 5.0 9.0 0.00 0.00 0.00 76 1022.9
20171022144806 70 252 4.0 12.0 0.00 0.00 0.00 76 1023.0
20171022142807 70 263 5.0 12.0 0.00 0.00 0.00 74 1023.2
20171022141807 71 253 7.0 12.0 0.00 0.00 0.00 73 1023.3
20171022140806 72 259 6.0 12.0 0.00 0.00 0.00 72 1023.3
20171022135807 73 259 7.0 12.0 0.00 0.00 0.00 71 1023.4
20171022134807 73 257 6.0 12.0 0.00 0.00 0.00 70 1023.5
20171022131806 72 260 6.0 12.0 0.00 0.00 0.00 64 1023.7
20171022125807 73 250 5.0 12.0 0.00 0.00 0.00 71 1023.8
20171022124806 73 252 7.0 12.0 0.00 0.00 0.00 74 1023.9
20171022122807 72 240 6.0 12.0 0.00 0.00 0.00 76 1024.0
20171022121806 73 196 5.0 9.0 0.00 0.00 0.00 75 1024.1
20171022120808 73 194 2.0 7.0 0.00 0.00 0.00 73 1024.2
20171022115807 73 186 4.0 9.0 0.00 0.00 0.00 72 1024.2